Time,TemperatureF,DewpointF,PressureIn,WindDirection,WindDirectionDegrees,WindSpeedMPH,WindSpeedGustMPH,Humidity,HourlyPrecipIn,Conditions,Clouds,dailyrainin,SoftwareType,DateUTC
2013-04-05 00:00:00,40.8,24.5,29.96,NNW,329,1.0,1.0,52,0.00,,,0.00,Wunderground v.1.15,2013-04-05 04:00:00,
2013-04-05 10:45:00,49.4,26.1,29.79,WSW,252,3.0,6.0,40,0.00,,,0.00,Wunderground v.1.15,2013-04-05 14:45:00,
2013-04-05 10:50:00,49.9,25.9,29.79,East,88,2.0,6.0,39,0.00,,,0.00,Wunderground v.1.15,2013-04-05 14:50:00,
2013-04-05 10:55:00,50.6,25.3,29.79,South,186,1.0,6.0,37,0.00,,,0.00,Wunderground v.1.15,2013-04-05 14:55:00,
2013-04-05 11:05:00,51.1,25.0,29.78,West,265,1.0,6.0,36,0.00,,,0.00,Wunderground v.1.15,2013-04-05 15:05:00,
2013-04-05 11:10:00,51.4,26.6,29.77,West,263,1.0,6.0,38,0.00,,,0.00,Wunderground v.1.15,2013-04-05 15:10:00,
2013-04-05 11:15:00,51.9,25.8,29.77,WSW,255,1.0,6.0,36,0.00,,,0.00,Wunderground v.1.15,2013-04-05 15:15:00,
2013-04-05 11:20:00,52.3,25.4,29.77,West,261,2.0,6.0,35,0.00,,,0.00,Wunderground v.1.15,2013-04-05 15:20:00,
2013-04-05 11:30:00,52.9,26.6,29.76,West,274,1.0,6.0,36,0.00,,,0.00,Wunderground v.1.15,2013-04-05 15:30:00,
2013-04-05 11:40:00,52.8,25.9,29.75,West,278,1.0,1.0,35,0.00,,,0.00,Wunderground v.1.15,2013-04-05 15:40:00,
2013-04-05 11:50:00,52.9,26.0,29.75,ESE,114,2.0,6.0,35,0.00,,,0.00,Wunderground v.1.15,2013-04-05 15:50:00,
2013-04-05 12:00:00,53.0,25.3,29.75,ESE,122,2.0,6.0,34,0.00,,,0.00,Wunderground v.1.15,2013-04-05 16:00:00,
2013-04-05 12:10:00,53.3,25.6,29.74,East,83,1.0,6.0,34,0.00,,,0.00,Wunderground v.1.15,2013-04-05 16:10:00,
2013-04-05 12:15:00,53.6,24.4,29.73,West,264,1.0,6.0,32,0.00,,,0.00,Wunderground v.1.15,2013-04-05 16:15:00,
2013-04-05 12:25:00,54.0,24.0,29.72,ESE,109,2.0,6.0,31,0.00,,,0.00,Wunderground v.1.15,2013-04-05 16:25:00,
2013-04-05 12:40:00,55.8,24.8,29.71,East,84,1.0,6.0,30,0.00,,,0.00,Wunderground v.1.15,2013-04-05 16:40:00,
2013-04-05 12:45:00,56.8,24.0,29.70,WSW,248,1.0,6.0,28,0.00,,,0.00,Wunderground v.1.15,2013-04-05 16:45:00,
2013-04-05 12:55:00,56.4,21.9,29.70,West,259,1.0,4.0,26,0.00,,,0.00,Wunderground v.1.15,2013-04-05 16:55:00,
2013-04-05 13:00:00,56.5,22.9,29.69,ESE,115,1.0,6.0,27,0.00,,,0.00,Wunderground v.1.15,2013-04-05 17:00:00,
2013-04-05 13:10:00,56.8,22.2,29.68,NE,43,3.0,3.0,26,0.00,,,0.00,Wunderground v.1.15,2013-04-05 17:10:00,
2013-04-05 13:15:00,57.1,21.6,29.68,West,260,3.0,5.0,25,0.00,,,0.00,Wunderground v.1.15,2013-04-05 17:15:00,
2013-04-05 13:20:00,56.6,22.1,29.68,SW,217,3.0,3.0,26,0.00,,,0.00,Wunderground v.1.15,2013-04-05 17:20:00,
2013-04-05 13:25:00,57.0,23.3,29.68,West,261,3.0,6.0,27,0.00,,,0.00,Wunderground v.1.15,2013-04-05 17:25:00,
2013-04-05 13:35:00,57.7,23.0,29.67,WSW,254,2.0,6.0,26,0.00,,,0.00,Wunderground v.1.15,2013-04-05 17:35:00,
2013-04-05 13:45:00,57.6,24.7,29.66,West,259,2.0,6.0,28,0.00,,,0.00,Wunderground v.1.15,2013-04-05 17:45:00,
2013-04-05 13:55:00,58.4,24.5,29.66,ENE,77,2.0,6.0,27,0.00,,,0.00,Wunderground v.1.15,2013-04-05 17:55:00,
2013-04-05 14:05:00,58.3,26.1,29.66,SSW,194,2.0,6.0,29,0.00,,,0.00,Wunderground v.1.15,2013-04-05 18:05:00,
2013-04-05 14:10:00,58.7,28.1,29.65,East,92,3.0,3.0,31,0.00,,,0.00,Wunderground v.1.15,2013-04-05 18:10:00,
2013-04-05 14:20:00,59.2,26.9,29.65,East,95,2.0,6.0,29,0.00,,,0.00,Wunderground v.1.15,2013-04-05 18:20:00,
2013-04-05 14:30:00,60.3,28.7,29.64,ESE,123,2.0,6.0,30,0.00,,,0.00,Wunderground v.1.15,2013-04-05 18:30:00,
2013-04-05 14:40:00,59.6,28.1,29.64,SE,144,2.0,2.0,30,0.00,,,0.00,Wunderground v.1.15,2013-04-05 18:40:00,
2013-04-05 14:50:00,58.9,27.5,29.63,WSW,244,2.0,6.0,30,0.00,,,0.00,Wunderground v.1.15,2013-04-05 18:50:00,
2013-04-05 15:00:00,58.6,28.0,29.63,SSW,208,2.0,2.0,31,0.00,,,0.00,Wunderground v.1.15,2013-04-05 19:00:00,
2013-04-05 15:05:00,59.0,27.6,29.62,NE,41,1.0,6.0,30,0.00,,,0.00,Wunderground v.1.15,2013-04-05 19:05:00,
2013-04-05 15:15:00,58.6,28.0,29.62,SSW,199,2.0,6.0,31,0.00,,,0.00,Wunderground v.1.15,2013-04-05 19:15:00,
2013-04-05 15:20:00,58.4,29.4,29.62,SW,233,2.0,2.0,33,0.00,,,0.00,Wunderground v.1.15,2013-04-05 19:20:00,
2013-04-05 16:25:00,56.1,28.8,29.62,ENE,57,2.0,6.0,35,0.00,,,0.00,Wunderground v.1.15,2013-04-05 20:25:00,
2013-04-05 16:35:00,55.3,27.4,29.63,East,91,1.0,6.0,34,0.00,,,0.00,Wunderground v.1.15,2013-04-05 20:35:00,
2013-04-05 16:40:00,55.3,28.1,29.63,WSW,246,1.0,6.0,35,0.00,,,0.00,Wunderground v.1.15,2013-04-05 20:40:00,
2013-04-05 16:50:00,54.6,26.0,29.63,East,91,2.0,6.0,33,0.00,,,0.00,Wunderground v.1.15,2013-04-05 20:50:00,
2013-04-05 16:55:00,54.5,25.2,29.64,WNW,294,2.0,6.0,32,0.00,,,0.00,Wunderground v.1.15,2013-04-05 20:55:00,
2013-04-05 17:00:00,54.4,25.1,29.64,SW,236,1.0,1.0,32,0.00,,,0.00,Wunderground v.1.15,2013-04-05 21:00:00,
2013-04-05 17:10:00,54.3,25.0,29.64,West,261,1.0,6.0,32,0.00,,,0.00,Wunderground v.1.15,2013-04-05 21:10:00,
2013-04-05 17:20:00,53.7,23.7,29.64,WNW,298,2.0,2.0,31,0.00,,,0.00,Wunderground v.1.15,2013-04-05 21:20:00,
2013-04-05 17:30:00,53.2,24.1,29.64,SE,130,1.0,6.0,32,0.00,,,0.00,Wunderground v.1.15,2013-04-05 21:30:00,
2013-04-05 17:35:00,53.0,23.9,29.64,SW,229,2.0,6.0,32,0.00,,,0.00,Wunderground v.1.15,2013-04-05 21:35:00,
2013-04-05 17:45:00,52.8,24.5,29.65,NNW,336,2.0,6.0,33,0.00,,,0.00,Wunderground v.1.15,2013-04-05 21:45:00,
2013-04-05 17:55:00,52.4,24.8,29.65,ESE,121,1.0,6.0,34,0.00,,,0.00,Wunderground v.1.15,2013-04-05 21:55:00,
2013-04-05 18:00:00,52.2,23.9,29.65,NNW,338,1.0,1.0,33,0.00,,,0.00,Wunderground v.1.15,2013-04-05 22:00:00,
2013-04-05 18:05:00,51.9,23.7,29.66,WSW,249,1.0,4.0,33,0.00,,,0.00,Wunderground v.1.15,2013-04-05 22:05:00,
2013-04-05 18:15:00,51.4,24.6,29.66,East,88,1.0,6.0,35,0.00,,,0.00,Wunderground v.1.15,2013-04-05 22:15:00,
2013-04-05 18:25:00,50.6,25.3,29.67,WSW,255,1.0,6.0,37,0.00,,,0.00,Wunderground v.1.15,2013-04-05 22:25:00,
2013-04-05 19:15:00,46.9,27.2,29.72,WSW,246,1.0,6.0,46,0.00,,,0.00,Wunderground v.1.15,2013-04-05 23:15:00,
2013-04-05 19:25:00,46.4,27.2,29.73,West,263,1.0,6.0,47,0.00,,,0.00,Wunderground v.1.15,2013-04-05 23:25:00,
2013-04-05 19:35:00,45.8,26.7,29.73,SSW,196,1.0,6.0,47,0.00,,,0.00,Wunderground v.1.15,2013-04-05 23:35:00,
2013-04-05 19:45:00,45.3,26.2,29.74,NNW,342,1.0,6.0,47,0.00,,,0.00,Wunderground v.1.15,2013-04-05 23:45:00,
2013-04-05 19:55:00,44.9,26.4,29.74,ESE,122,1.0,6.0,48,0.00,,,0.00,Wunderground v.1.15,2013-04-05 23:55:00,
2013-04-05 20:00:00,44.5,26.5,29.74,SW,231,1.0,1.0,49,0.00,,,0.00,Wunderground v.1.15,2013-04-06 00:00:00,
2013-04-05 20:10:00,43.9,26.4,29.75,NW,317,0.0,6.0,50,0.00,,,0.00,Wunderground v.1.15,2013-04-06 00:10:00,
2013-04-05 20:20:00,43.4,26.9,29.76,ESE,117,1.0,6.0,52,0.00,,,0.00,Wunderground v.1.15,2013-04-06 00:20:00,
2013-04-05 20:30:00,42.6,27.5,29.77,East,84,2.0,2.0,55,0.00,,,0.00,Wunderground v.1.15,2013-04-06 00:30:00,
2013-04-05 20:35:00,42.1,27.5,29.77,East,91,2.0,7.0,56,0.00,,,0.00,Wunderground v.1.15,2013-04-06 00:35:00,
2013-04-05 20:45:00,41.3,27.6,29.78,West,277,2.0,6.0,58,0.00,,,0.00,Wunderground v.1.15,2013-04-06 00:45:00,
2013-04-05 20:55:00,40.6,27.8,29.79,East,94,1.0,6.0,60,0.00,,,0.00,Wunderground v.1.15,2013-04-06 00:55:00,
2013-04-05 21:05:00,40.1,27.7,29.79,West,261,2.0,6.0,61,0.00,,,0.00,Wunderground v.1.15,2013-04-06 01:05:00,
2013-04-05 21:15:00,39.7,26.9,29.80,WSW,238,1.0,6.0,60,0.00,,,0.00,Wunderground v.1.15,2013-04-06 01:15:00,
2013-04-05 21:20:00,39.6,26.4,29.80,West,266,2.0,2.0,59,0.00,,,0.00,Wunderground v.1.15,2013-04-06 01:20:00,
2013-04-05 21:30:00,39.3,26.2,29.81,ENE,63,2.0,2.0,59,0.00,,,0.00,Wunderground v.1.15,2013-04-06 01:30:00,
2013-04-05 21:40:00,38.8,26.1,29.81,ESE,117,1.0,6.0,60,0.00,,,0.00,Wunderground v.1.15,2013-04-06 01:40:00,
2013-04-05 21:45:00,38.7,26.0,29.82,East,90,1.0,6.0,60,0.00,,,0.00,Wunderground v.1.15,2013-04-06 01:45:00,
2013-04-05 21:50:00,38.5,25.8,29.82,West,273,1.0,6.0,60,0.00,,,0.00,Wunderground v.1.15,2013-04-06 01:50:00,
2013-04-05 22:00:00,38.1,25.8,29.82,SSE,150,1.0,1.0,61,0.00,,,0.00,Wunderground v.1.15,2013-04-06 02:00:00,
2013-04-05 22:05:00,37.9,26.0,29.82,South,187,1.0,6.0,62,0.00,,,0.00,Wunderground v.1.15,2013-04-06 02:05:00,
2013-04-05 22:15:00,37.7,25.8,29.82,NE,36,1.0,6.0,62,0.00,,,0.00,Wunderground v.1.15,2013-04-06 02:15:00,
2013-04-05 23:05:00,36.5,25.1,29.83,East,86,0.0,6.0,63,0.00,,,0.00,Wunderground v.1.15,2013-04-06 03:05:00,
2013-04-05 23:15:00,36.2,25.2,29.83,East,98,0.0,6.0,64,0.00,,,0.00,Wunderground v.1.15,2013-04-06 03:15:00,
2013-04-05 23:20:00,36.0,25.0,29.84,ENE,71,0.0,6.0,64,0.00,,,0.00,Wunderground v.1.15,2013-04-06 03:20:00,
2013-04-05 23:30:00,35.7,25.1,29.84,West,270,0.0,6.0,65,0.00,,,0.00,Wunderground v.1.15,2013-04-06 03:30:00,